Tappahannock, VA

2:17 PM EDT on April 28, 2017 (GMT -0400)
Tappahannock

Weather History for KXSA - January, 2013

Change the Weather History Date:

Sunday, January 27, 2013

  Actual Average (KOFP) Record (KOFP)
Temperature  
Mean Temperature 32 °F -  
Max Temperature 39 °F 47 °F 73 °F (1974)
Min Temperature 26 °F 25 °F -1 °F (1987)
Degree Days  
Heating Degree Days 32    
Moisture  
Dew Point 21 °F    
Average Humidity 65    
Maximum Humidity 83    
Minimum Humidity 42    
Precipitation  
Precipitation 0.00 in - - ()
Sea Level Pressure  
Sea Level Pressure 30.53 in    
Wind  
Wind Speed 1 mph (NW)    
Max Wind Speed 7 mph    
Max Gust Speed -    
Visibility 10 miles    
Events      
Averages and records for this station are not official NWS values.
T = Trace of Precipitation, MM = Missing Value Source: NWS Daily Summary

Daily Weather History Graph

Daily Weather History Graph

Search for Another Location

Airport or City:

Trip Planner

Search our weather history database for the weather conditions in past years. The results will help you decide how hot, cold, wet, or windy it might be!

Date:

Astronomy

Jan. 27, 2013 Rise Set
Actual Time 7:15 AM EST 5:25 PM EST
Civil Twilight 6:47 AM EST 5:53 PM EST
Nautical Twilight 6:15 AM EST 6:25 PM EST
Astronomical Twilight 5:44 AM EST 6:56 PM EST
Moon 6:15 PM EST (1/27) 7:08 AM EST (1/27)
Length of Visible Light 11h 06m
Length of Day
10h 10m
Full, 100% of the Moon is Illuminated
Jan 27
Full
Feb 3
Last Quarter
Feb 10
New
Feb 17
First Quarter
Feb 25
Full

Hourly Weather History & Observations

Time (EST) Temp. Windchill Dew Point Humidity Pressure Visibility Wind Dir Wind Speed Gust Speed Precip Events Conditions
12:15 AM 31.8 °F - 22.1 °F 67% 30.44 in 10.0 mi Calm Calm - N/A   Overcast
12:35 AM 31.8 °F - 22.1 °F 67% 30.44 in 10.0 mi Calm Calm - N/A   Overcast
12:55 AM 31.1 °F - 22.6 °F 71% 30.45 in 10.0 mi Calm Calm - N/A   Overcast
1:15 AM 31.6 °F - 22.1 °F 68% 30.45 in 10.0 mi Calm Calm - N/A   Overcast
1:35 AM 31.8 °F - 22.8 °F 69% 30.45 in 10.0 mi Calm Calm - N/A   Overcast
1:55 AM 30.9 °F - 23.2 °F 73% 30.46 in 10.0 mi Calm Calm - N/A   Overcast
2:15 AM 30.7 °F - 23.0 °F 73% 30.47 in 10.0 mi Calm Calm - N/A   Overcast
2:35 AM 30.7 °F - 23.0 °F 73% 30.47 in 10.0 mi Calm Calm - N/A   Overcast
2:55 AM 30.4 °F - 22.8 °F 73% 30.47 in 10.0 mi Calm Calm - N/A   Overcast
3:15 AM 31.1 °F - 21.4 °F 67% 30.47 in 10.0 mi Calm Calm - N/A   Overcast
3:35 AM 30.9 °F - 21.4 °F 68% 30.48 in 10.0 mi Calm Calm - N/A   Overcast
3:55 AM 29.8 °F - 23.2 °F 76% 30.49 in 10.0 mi Calm Calm - N/A   Overcast
4:15 AM 30.2 °F - 22.3 °F 72% 30.49 in 10.0 mi Calm Calm - N/A   Overcast
4:35 AM 29.3 °F - 24.6 °F 83% 30.47 in 10.0 mi Calm Calm - N/A   Overcast
4:55 AM 29.3 °F - 24.3 °F 81% 30.48 in 10.0 mi Calm Calm - N/A   Overcast
5:15 AM 29.5 °F - 23.7 °F 79% 30.48 in 10.0 mi Calm Calm - N/A   Overcast
5:35 AM 29.8 °F - 22.1 °F 73% 30.50 in 10.0 mi Calm Calm - N/A   Overcast
5:55 AM 29.8 °F - 22.1 °F 73% 30.50 in 10.0 mi Calm Calm - N/A   Overcast
6:15 AM 29.1 °F - 22.3 °F 76% 30.52 in 10.0 mi Calm Calm - N/A   Overcast
6:35 AM 29.3 °F - 21.9 °F 74% 30.52 in 10.0 mi Calm Calm - N/A   Overcast
6:55 AM 28.8 °F - 23.4 °F 80% 30.52 in 10.0 mi Calm Calm - N/A   Overcast
7:15 AM 28.4 °F - 23.2 °F 81% 30.54 in 10.0 mi Calm Calm - N/A   Overcast
7:35 AM 28.0 °F - 22.5 °F 80% 30.55 in 10.0 mi Calm Calm - N/A   Mostly Cloudy
7:55 AM 27.1 °F - 22.5 °F 83% 30.56 in 10.0 mi Calm Calm - N/A   Scattered Clouds
8:15 AM 28.2 °F - 22.6 °F 80% 30.57 in 10.0 mi Calm Calm - N/A   Scattered Clouds
8:35 AM 30.6 °F - 21.4 °F 69% 30.57 in 10.0 mi Calm Calm - N/A   Clear
8:55 AM 31.8 °F 28.5 °F 20.8 °F 64% 30.58 in 10.0 mi NNE 3.5 mph - N/A   Clear
9:15 AM 32.0 °F 26.4 °F 19.6 °F 60% 30.59 in 10.0 mi NNW 5.8 mph - N/A   Clear
9:35 AM 32.9 °F 27.5 °F 19.0 °F 57% 30.60 in 10.0 mi North 5.8 mph - N/A   Scattered Clouds
9:55 AM 33.1 °F 27.7 °F 19.2 °F 57% 30.61 in 10.0 mi North 5.8 mph - N/A   Scattered Clouds
10:15 AM 33.8 °F 27.7 °F 18.9 °F 54% 30.61 in 10.0 mi North 6.9 mph - N/A   Mostly Cloudy
10:35 AM 33.8 °F 28.6 °F 18.9 °F 54% 30.61 in 10.0 mi NE 5.8 mph - N/A   Mostly Cloudy
10:55 AM 34.2 °F 31.2 °F 19.2 °F 54% 30.60 in 10.0 mi North 3.5 mph - N/A   Scattered Clouds
11:15 AM 34.3 °F 30.2 °F 19.4 °F 54% 30.60 in 10.0 mi NNE 4.6 mph - N/A   Scattered Clouds
11:35 AM 34.2 °F - 18.7 °F 53% 30.59 in 10.0 mi Calm Calm - N/A   Scattered Clouds
11:55 AM 35.6 °F - 19.2 °F 51% 30.59 in 10.0 mi Calm Calm - N/A   Mostly Cloudy
12:15 PM 35.6 °F 30.7 °F 19.2 °F 51% 30.58 in 10.0 mi NNW 5.8 mph - N/A   Mostly Cloudy
12:35 PM 35.4 °F 32.6 °F 18.3 °F 50% 30.57 in 10.0 mi NNW 3.5 mph - N/A   Scattered Clouds
12:55 PM 36.1 °F 31.4 °F 19.0 °F 50% 30.56 in 10.0 mi WNW 5.8 mph - N/A   Clear
1:15 PM 37.2 °F 33.6 °F 20.7 °F 51% 30.55 in 10.0 mi West 4.6 mph - N/A   Clear
1:35 PM 36.9 °F - 19.0 °F 49% 30.54 in 10.0 mi Calm Calm - N/A   Clear
1:55 PM 37.9 °F 32.7 °F 19.2 °F 47% 30.53 in 10.0 mi West 6.9 mph - N/A   Clear
2:15 PM 38.3 °F - 18.3 °F 45% 30.53 in 10.0 mi Calm Calm - N/A   Clear
2:35 PM 38.7 °F 36.3 °F 18.0 °F 43% 30.53 in 10.0 mi WSW 3.5 mph - N/A   Clear
2:55 PM 39.2 °F - 18.1 °F 43% 30.52 in 10.0 mi Calm Calm - N/A   Clear
3:15 PM 38.8 °F 35.4 °F 17.2 °F 42% 30.52 in 10.0 mi West 4.6 mph - N/A   Clear
3:35 PM 38.5 °F - 17.1 °F 42% 30.51 in 10.0 mi Calm Calm - N/A   Clear
3:55 PM 38.7 °F 36.3 °F 17.8 °F 43% 30.52 in 10.0 mi West 3.5 mph - N/A   Clear
4:15 PM 37.9 °F 35.5 °F 18.0 °F 45% 30.53 in 10.0 mi WNW 3.5 mph - N/A   Clear
4:35 PM 37.6 °F - 18.7 °F 47% 30.53 in 10.0 mi Calm Calm - N/A   Clear
4:55 PM 36.5 °F - 19.4 °F 50% 30.53 in 10.0 mi Calm Calm - N/A   Clear
5:15 PM 35.6 °F - 20.1 °F 53% 30.53 in 10.0 mi Calm Calm - N/A   Clear
5:35 PM 34.9 °F 32.0 °F 19.4 °F 53% 30.54 in 10.0 mi ESE 3.5 mph - N/A   Clear
5:55 PM 33.3 °F - 20.5 °F 59% 30.54 in 10.0 mi Calm Calm - N/A   Clear
6:15 PM 31.3 °F - 21.7 °F 68% 30.54 in 10.0 mi Calm Calm - N/A   Clear
6:35 PM 31.1 °F - 21.4 °F 67% 30.54 in 10.0 mi Calm Calm - N/A   Clear
6:55 PM 29.5 °F - 21.7 °F 73% 30.54 in 10.0 mi Calm Calm - N/A   Clear
7:15 PM 29.1 °F - 22.1 °F 75% 30.54 in 10.0 mi Calm Calm - N/A   Clear
7:35 PM 29.7 °F - 22.1 °F 73% 30.53 in 10.0 mi Calm Calm - N/A   Clear
7:55 PM 28.4 °F - 22.5 °F 78% 30.54 in 10.0 mi Calm Calm - N/A   Clear
8:15 PM 28.6 °F - 21.9 °F 76% 30.53 in 10.0 mi Calm Calm - N/A   Clear
8:35 PM 28.4 °F 24.6 °F 21.4 °F 75% 30.53 in 10.0 mi SSE 3.5 mph - N/A   Clear
8:55 PM 27.3 °F 22.0 °F 22.1 °F 81% 30.52 in 10.0 mi SSE 4.6 mph - N/A   Clear
9:15 PM 29.3 °F 25.6 °F 21.4 °F 72% 30.51 in 10.0 mi SE 3.5 mph - N/A   Clear
9:35 PM 29.7 °F - 21.2 °F 71% 30.54 in 10.0 mi Calm Calm - N/A   Clear
9:55 PM 27.5 °F - 21.2 °F 77% 30.54 in 10.0 mi Calm Calm - N/A   Clear
10:15 PM 26.6 °F - 21.4 °F 81% 30.54 in 10.0 mi Calm Calm - N/A   Clear
10:35 PM 27.5 °F - 21.9 °F 80% 30.53 in 10.0 mi Calm Calm - N/A   Clear
10:55 PM 29.3 °F 24.3 °F 22.3 °F 75% 30.52 in 10.0 mi South 4.6 mph - N/A   Clear
11:15 PM 30.2 °F - 22.1 °F 72% 30.52 in 10.0 mi Calm Calm - N/A   Clear
11:35 PM 30.2 °F 26.7 °F 22.6 °F 73% 30.51 in 10.0 mi SSE 3.5 mph - N/A   Clear
11:55 PM 30.9 °F - 22.6 °F 71% 30.51 in 10.0 mi Calm Calm - N/A   Clear